DLH8AA EDDM-LJLJ

Flight info

Callsign DLH8AA
Flight time 0h 41m
Altitude 23000
Route ROTAX4Q ROTAX L603 LATLO DCT OBEDI DCT LUMUS LUMUS4L
Aircraft CRJ9/M-SDFGIRWY/S

Departure

Time 2026-05-04 17:38
Airport Munich Airport (EDDM)

Arrival

Time 2026-05-04 18:19
Airport Ljubljana Jože Pučnik Airport (LJLJ)
Time Latitude Longitude Altitude Speed Heading
2026-05-04 16:52 48.35024 11.79175 1463 ft 0 kts 83°
2026-05-04 17:21 48.35023 11.79166 1465 ft 4 kts 83°
2026-05-04 17:21 48.35024 11.79112 1458 ft 3 kts 172°
2026-05-04 17:22 48.35056 11.79107 1461 ft 1 kts 174°
2026-05-04 17:22 48.35057 11.79107 1461 ft 0 kts 174°
2026-05-04 17:25 48.35050 11.79108 1462 ft 3 kts 174°
2026-05-04 17:26 48.34962 11.79127 1462 ft 0 kts 156°
2026-05-04 17:26 48.34946 11.79219 1465 ft 5 kts 96°
2026-05-04 17:27 48.34943 11.79327 1465 ft 5 kts 85°
2026-05-04 17:27 48.34952 11.79449 1465 ft 6 kts 83°
2026-05-04 17:28 48.34918 11.79545 1466 ft 5 kts 169°
2026-05-04 17:29 48.34795 11.79535 1460 ft 8 kts 237°
2026-05-04 17:29 48.34761 11.79188 1465 ft 18 kts 263°
2026-05-04 17:30 48.34716 11.78611 1465 ft 18 kts 263°
2026-05-04 17:31 48.34687 11.78227 1465 ft 18 kts 263°
2026-05-04 17:31 48.34644 11.77661 1464 ft 18 kts 263°
2026-05-04 17:32 48.34615 11.77297 1464 ft 18 kts 264°
2026-05-04 17:33 48.34574 11.76749 1464 ft 17 kts 263°
2026-05-04 17:33 48.34560 11.76567 1464 ft 17 kts 263°
2026-05-04 17:34 48.34518 11.76023 1464 ft 18 kts 263°
2026-05-04 17:34 48.34504 11.75840 1464 ft 18 kts 263°
2026-05-04 17:35 48.34464 11.75322 1461 ft 12 kts 263°
2026-05-04 17:35 48.34346 11.75220 1460 ft 11 kts 175°
2026-05-04 17:35 48.34270 11.75232 1465 ft 11 kts 173°
2026-05-04 17:36 48.34203 11.75245 1465 ft 6 kts 173°
2026-05-04 17:36 48.34191 11.75247 1465 ft 0 kts 173°
2026-05-04 17:36 48.34176 11.75250 1461 ft 5 kts 173°
2026-05-04 17:37 48.34128 11.75264 1464 ft 4 kts 157°
2026-05-04 17:37 48.34096 11.75315 1469 ft 9 kts 110°
2026-05-04 17:37 48.34097 11.75493 1471 ft 34 kts 84°
2026-05-04 17:37 48.34148 11.76153 1466 ft 92 kts 83°
2026-05-04 17:38 48.34240 11.77365 1466 ft 139 kts 84°
2026-05-04 17:38 48.34354 11.78898 1544 ft 167 kts 83°
2026-05-04 17:38 48.34477 11.80718 1960 ft 177 kts 83°
2026-05-04 17:38 48.34594 11.82552 2599 ft 175 kts 84°
2026-05-04 17:39 48.34804 11.86131 3782 ft 174 kts 84°
2026-05-04 17:39 48.34907 11.87984 4226 ft 179 kts 85°
2026-05-04 17:39 48.35005 11.89850 4766 ft 178 kts 86°
2026-05-04 17:40 48.35082 11.91670 5268 ft 177 kts 88°
2026-05-04 17:40 48.35061 11.93529 5693 ft 180 kts 98°
2026-05-04 17:40 48.34772 11.95388 6055 ft 185 kts 109°
2026-05-04 17:40 48.34306 11.97176 6545 ft 183 kts 116°
2026-05-04 17:41 48.33758 11.98910 6965 ft 184 kts 118°
2026-05-04 17:41 48.33175 12.00640 7342 ft 187 kts 120°
2026-05-04 17:41 48.32560 12.02370 7746 ft 188 kts 121°
2026-05-04 17:41 48.31969 12.04140 8121 ft 191 kts 117°
2026-05-04 17:42 48.31460 12.05997 8525 ft 191 kts 115°
2026-05-04 17:42 48.30976 12.07859 8914 ft 193 kts 115°
2026-05-04 17:42 48.30479 12.09789 9167 ft 201 kts 115°
2026-05-04 17:42 48.29922 12.11698 9556 ft 198 kts 125°
2026-05-04 17:43 48.29052 12.13218 9810 ft 198 kts 148°
2026-05-04 17:43 48.27853 12.14134 10038 ft 197 kts 167°
2026-05-04 17:43 48.26578 12.14629 10585 ft 183 kts 170°
2026-05-04 17:43 48.25372 12.15108 11099 ft 175 kts 169°
2026-05-04 17:44 48.24159 12.15604 11215 ft 188 kts 169°
2026-05-04 17:44 48.22863 12.16147 11401 ft 195 kts 168°
2026-05-04 17:44 48.21595 12.16750 11871 ft 187 kts 166°
2026-05-04 17:44 48.20403 12.17409 12265 ft 184 kts 164°
2026-05-04 17:45 48.19224 12.18106 12480 ft 190 kts 163°
2026-05-04 17:45 48.17966 12.18894 12677 ft 196 kts 160°
2026-05-04 17:45 48.16763 12.19834 12907 ft 206 kts 156°
2026-05-04 17:45 48.15376 12.20987 12406 ft 251 kts 155°
2026-05-04 17:46 48.13776 12.22335 12555 ft 265 kts 154°
2026-05-04 17:46 48.12239 12.23752 13410 ft 255 kts 152°
2026-05-04 17:46 48.10758 12.25208 13913 ft 258 kts 149°
2026-05-04 17:46 48.09292 12.26887 14094 ft 273 kts 146°
2026-05-04 17:47 48.07837 12.28802 14344 ft 283 kts 141°
2026-05-04 17:47 48.06420 12.30835 14756 ft 285 kts 141°
2026-05-04 17:47 48.04998 12.32916 15223 ft 287 kts 140°
2026-05-04 17:47 48.03574 12.35023 15615 ft 290 kts 140°
2026-05-04 17:48 48.02127 12.37143 15983 ft 293 kts 140°
2026-05-04 17:48 48.00648 12.39266 16349 ft 296 kts 140°
2026-05-04 17:48 47.99139 12.41375 16758 ft 297 kts 141°
2026-05-04 17:48 47.97620 12.43449 17245 ft 294 kts 142°
2026-05-04 17:49 47.96127 12.45419 17636 ft 296 kts 142°
2026-05-04 17:49 47.94527 12.47457 17752 ft 307 kts 143°
2026-05-04 17:49 47.92921 12.49425 18026 ft 311 kts 144°
2026-05-04 17:49 47.91245 12.51449 18439 ft 310 kts 144°
2026-05-04 17:50 47.89553 12.53476 18657 ft 316 kts 144°
2026-05-04 17:50 47.87824 12.55523 18988 ft 315 kts 144°
2026-05-04 17:50 47.86129 12.57537 19517 ft 308 kts 144°
2026-05-04 17:50 47.84470 12.59503 20010 ft 302 kts 144°
2026-05-04 17:51 47.82831 12.61426 20467 ft 297 kts 145°
2026-05-04 17:51 47.81215 12.63277 20937 ft 291 kts 146°
2026-05-04 17:51 47.79610 12.65125 21252 ft 291 kts 145°
2026-05-04 17:51 47.78050 12.66931 21684 ft 286 kts 145°
2026-05-04 17:52 47.76480 12.68740 22021 ft 284 kts 145°
2026-05-04 17:52 47.74906 12.70528 22209 ft 288 kts 146°
2026-05-04 17:52 47.73286 12.72339 22372 ft 292 kts 145°
2026-05-04 17:52 47.71726 12.74107 22768 ft 288 kts 144°
2026-05-04 17:53 47.70100 12.75972 22763 ft 301 kts 144°
2026-05-04 17:53 47.68414 12.77929 22901 ft 316 kts 144°
2026-05-04 17:53 47.66632 12.80063 22802 ft 340 kts 138°
2026-05-04 17:53 47.64931 12.82599 23001 ft 353 kts 137°
2026-05-04 17:54 47.63170 12.85049 23031 ft 370 kts 142°
2026-05-04 17:54 47.61089 12.87480 23017 ft 388 kts 144°
2026-05-04 17:54 47.58916 12.89993 23003 ft 405 kts 143°
2026-05-04 17:54 47.56706 12.92705 23012 ft 418 kts 141°
2026-05-04 17:55 47.54508 12.95567 22996 ft 424 kts 140°
2026-05-04 17:55 47.52281 12.98468 22989 ft 429 kts 140°
2026-05-04 17:55 47.50020 13.01377 22981 ft 432 kts 140°
2026-05-04 17:55 47.47790 13.04230 22976 ft 436 kts 140°
2026-05-04 17:56 47.45499 13.07177 22955 ft 435 kts 140°
2026-05-04 17:56 47.43219 13.10088 22960 ft 432 kts 141°
2026-05-04 17:56 47.40948 13.12984 22957 ft 430 kts 141°
2026-05-04 17:56 47.38688 13.15871 22950 ft 428 kts 140°
2026-05-04 17:57 47.36488 13.18682 22964 ft 427 kts 141°
2026-05-04 17:57 47.34287 13.21482 22969 ft 426 kts 141°
2026-05-04 17:57 47.32046 13.24341 22976 ft 425 kts 141°
2026-05-04 17:57 47.29808 13.27183 22969 ft 424 kts 141°
2026-05-04 17:58 47.27578 13.30015 22984 ft 423 kts 141°
2026-05-04 17:58 47.25423 13.32748 22979 ft 423 kts 141°
2026-05-04 17:58 47.23206 13.35560 22989 ft 422 kts 140°
2026-05-04 17:58 47.20985 13.38384 22978 ft 421 kts 141°
2026-05-04 17:59 47.18768 13.41191 22979 ft 421 kts 141°
2026-05-04 17:59 47.16544 13.44000 22981 ft 420 kts 141°
2026-05-04 17:59 47.12133 13.49617 23003 ft 419 kts 141°
2026-05-04 18:00 47.09938 13.52433 23028 ft 420 kts 141°
2026-05-04 18:00 47.07818 13.55119 23027 ft 420 kts 142°
2026-05-04 18:00 47.05595 13.57901 23024 ft 419 kts 141°
2026-05-04 18:00 47.03365 13.60662 23022 ft 419 kts 141°
2026-05-04 18:01 47.01201 13.63357 23044 ft 419 kts 141°
2026-05-04 18:01 46.98964 13.66116 23039 ft 419 kts 141°
2026-05-04 18:01 46.96740 13.68861 23039 ft 414 kts 141°
2026-05-04 18:02 46.92485 13.74177 22088 ft 395 kts 142°
2026-05-04 18:02 46.90423 13.76766 21585 ft 387 kts 141°
2026-05-04 18:02 46.88392 13.79298 21107 ft 380 kts 142°
2026-05-04 18:02 46.86386 13.81828 20629 ft 381 kts 142°
2026-05-04 18:03 46.84369 13.84341 20146 ft 381 kts 141°
2026-05-04 18:03 46.82344 13.86848 19718 ft 382 kts 142°
2026-05-04 18:03 46.80429 13.89212 19322 ft 382 kts 141°
2026-05-04 18:03 46.78397 13.91733 18874 ft 382 kts 142°
2026-05-04 18:04 46.77102 13.93340 18593 ft 382 kts 141°
2026-05-04 18:04 46.75074 13.95846 18122 ft 382 kts 141°
2026-05-04 18:04 46.71028 14.00837 17143 ft 380 kts 142°
2026-05-04 18:05 46.69013 14.03339 16691 ft 379 kts 142°
2026-05-04 18:05 46.67004 14.05811 16239 ft 378 kts 142°
2026-05-04 18:05 46.64995 14.08277 15781 ft 376 kts 142°
2026-05-04 18:05 46.63002 14.10731 15351 ft 375 kts 142°
2026-05-04 18:06 46.59012 14.15555 14495 ft 370 kts 146°
2026-05-04 18:06 46.56847 14.17537 14089 ft 365 kts 153°
2026-05-04 18:06 46.54611 14.19243 13685 ft 362 kts 155°
2026-05-04 18:07 46.52454 14.20821 13256 ft 359 kts 155°
2026-05-04 18:07 46.50224 14.22459 12801 ft 358 kts 155°
2026-05-04 18:07 46.48069 14.24095 12363 ft 356 kts 154°
2026-05-04 18:07 46.45915 14.25765 11881 ft 353 kts 154°
2026-05-04 18:08 46.43775 14.27399 11463 ft 348 kts 155°
2026-05-04 18:08 46.41668 14.29018 11062 ft 338 kts 154°
2026-05-04 18:08 46.39630 14.30611 10661 ft 329 kts 154°
2026-05-04 18:08 46.37632 14.32158 10255 ft 322 kts 154°
2026-05-04 18:09 46.33761 14.35158 9458 ft 309 kts 154°
2026-05-04 18:09 46.30097 14.38007 8722 ft 286 kts 154°
2026-05-04 18:10 46.28416 14.39330 8359 ft 278 kts 155°
2026-05-04 18:10 46.26718 14.40656 8002 ft 276 kts 155°
2026-05-04 18:10 46.25029 14.41961 7643 ft 274 kts 155°
2026-05-04 18:10 46.23430 14.43446 7285 ft 275 kts 143°
2026-05-04 18:11 46.22000 14.45275 6947 ft 273 kts 142°
2026-05-04 18:11 46.20606 14.47127 6609 ft 271 kts 141°
2026-05-04 18:11 46.19235 14.48986 6254 ft 269 kts 141°
2026-05-04 18:11 46.17873 14.50821 5893 ft 267 kts 140°
2026-05-04 18:12 46.16531 14.52644 5608 ft 262 kts 140°
2026-05-04 18:12 46.15232 14.54406 5384 ft 250 kts 141°
2026-05-04 18:12 46.13998 14.56110 5149 ft 241 kts 140°
2026-05-04 18:12 46.12835 14.57760 4951 ft 226 kts 140°
2026-05-04 18:13 46.11788 14.59269 4736 ft 214 kts 140°
2026-05-04 18:13 46.10773 14.60740 4481 ft 205 kts 140°
2026-05-04 18:13 46.08878 14.63546 4057 ft 188 kts 132°
2026-05-04 18:14 46.08546 14.65326 3794 ft 186 kts 81°
2026-05-04 18:14 46.09156 14.66733 3698 ft 162 kts 30°
2026-05-04 18:14 46.10071 14.67570 3764 ft 154 kts 27°
2026-05-04 18:15 46.11755 14.67052 3958 ft 124 kts 289°
2026-05-04 18:15 46.12836 14.64879 3894 ft 149 kts 304°
2026-05-04 18:15 46.13498 14.63708 3876 ft 152 kts 301°
2026-05-04 18:16 46.14110 14.62482 3755 ft 142 kts 298°
2026-05-04 18:16 46.14636 14.61349 3297 ft 137 kts 296°
2026-05-04 18:16 46.15174 14.60135 3006 ft 149 kts 297°
2026-05-04 18:17 46.16320 14.57654 2822 ft 149 kts 299°
2026-05-04 18:17 46.16882 14.56491 2662 ft 142 kts 301°
2026-05-04 18:17 46.18104 14.54180 2264 ft 144 kts 303°
2026-05-04 18:18 46.18692 14.53057 2118 ft 140 kts 302°
2026-05-04 18:18 46.19276 14.51870 1947 ft 147 kts 302°
2026-05-04 18:18 46.19879 14.50689 1776 ft 148 kts 302°
2026-05-04 18:18 46.20475 14.49488 1619 ft 146 kts 298°
2026-05-04 18:19 46.21662 14.47156 1214 ft 141 kts 303°
2026-05-04 18:19 46.22116 14.46262 1232 ft 68 kts 307°
2026-05-04 18:19 46.22275 14.45948 1249 ft 30 kts 305°
2026-05-04 18:20 46.22396 14.45717 1247 ft 28 kts 307°
2026-05-04 18:20 46.22509 14.45511 1257 ft 24 kts 317°
2026-05-04 18:20 46.22635 14.45391 1253 ft 17 kts 335°
2026-05-04 18:20 46.22745 14.45336 1261 ft 16 kts 347°
2026-05-04 18:21 46.22824 14.45319 1263 ft 6 kts
2026-05-04 18:21 46.22864 14.45337 1259 ft 6 kts 32°
2026-05-04 18:21 46.22900 14.45379 1263 ft 7 kts 38°
2026-05-04 18:21 46.22933 14.45433 1264 ft 7 kts 74°
2026-05-04 18:22 46.22953 14.45487 1265 ft 3 kts 41°
2026-05-04 18:22 46.22966 14.45503 1258 ft 1 kts 35°
2026-05-04 18:22 46.22972 14.45509 1260 ft 0 kts 37°